GW5060 Weather Reports


time (UTC)temp
C
wind
direction
speed
KPH
gust
KPH
rain 1hr
cm
rain 24hr
cm
rain mn
cm
humidity
%
barometer
mb
20260507203053 17 0 0.0 0.0 0.00 0.00 0.00 72 1013.8
20260507202540 17 0 0.0 1.6 0.00 0.00 0.00 71 1013.8
20260507202040 17 0 0.0 1.6 0.00 0.00 0.00 70 1013.7
20260507201550 17 0 0.0 1.6 0.00 0.00 0.00 71 1013.7
20260507201037 17 0 0.0 1.6 0.00 0.00 0.00 69 1013.6
20260507200537 18 0 0.0 1.6 0.00 0.00 0.00 69 1013.6
20260507200045 18 193 0.0 1.6 0.00 0.00 0.00 68 1013.5
20260507195540 18 0 0.0 1.6 0.00 0.00 0.00 68 1013.4
20260507195037 18 0 0.0 0.0 0.00 0.00 0.00 68 1013.4
20260507194626 18 0 0.0 1.6 0.00 0.00 0.00 67 1013.4
20260507194037 18 0 0.0 1.6 0.00 0.00 0.00 66 1013.3
20260507193537 18 0 0.0 0.0 0.00 0.00 0.00 66 1013.3
20260507193052 19 0 0.0 0.0 0.00 0.00 0.00 67 1013.2
20260507192536 19 0 0.0 0.0 0.00 0.00 0.00 66 1013.2
20260507192036 19 0 0.0 0.0 0.00 0.00 0.00 65 1013.1
20260507191550 19 0 0.0 0.0 0.00 0.00 0.00 64 1013.0
20260507191036 20 0 0.0 1.6 0.00 0.00 0.00 63 1013.0
20260507190537 20 0 0.0 1.6 0.00 0.00 0.00 62 1012.9
20260507190051 20 0 0.0 3.2 0.00 0.00 0.00 61 1012.9
20260507185537 20 193 0.0 3.2 0.00 0.00 0.00 60 1013.0
20260507185037 20 0 0.0 1.6 0.00 0.00 0.00 60 1012.9
20260507184603 21 0 0.0 3.2 0.00 0.00 0.00 60 1012.9
20260507184037 21 0 0.0 3.2 0.00 0.00 0.00 59 1012.9
20260507183540 21 231 0.0 3.2 0.00 0.00 0.00 59 1012.9
20260507183046 21 0 0.0 3.2 0.00 0.00 0.00 58 1012.8
20260507182537 21 231 0.0 3.2 0.00 0.00 0.00 57 1012.8
20260507182037 21 0 0.0 1.6 0.00 0.00 0.00 56 1012.8
20260507181548 21 0 0.0 4.8 0.00 0.00 0.00 56 1012.7
20260507181037 21 231 0.0 4.8 0.00 0.00 0.00 55 1012.7
20260507180539 21 222 1.6 4.8 0.00 0.00 0.00 55 1012.6
20260507180048 21 239 1.6 4.8 0.00 0.00 0.00 54 1012.4
20260507175538 21 0 1.6 4.8 0.00 0.00 0.00 54 1012.3
20260507175039 22 240 1.6 6.4 0.00 0.00 0.00 54 1012.4
20260507174550 22 231 3.2 8.0 0.00 0.00 0.00 53 1012.3
20260507174038 22 231 1.6 11.3 0.00 0.00 0.00 53 1012.3
20260507173538 22 259 4.8 11.3 0.00 0.00 0.00 52 1012.2
20260507173048 22 267 4.8 9.7 0.00 0.00 0.00 52 1012.1
20260507172539 22 275 3.2 9.7 0.00 0.00 0.00 52 1012.1
20260507172038 22 228 3.2 8.0 0.00 0.00 0.00 53 1012.1
20260507171550 22 209 1.6 11.3 0.00 0.00 0.00 53 1012.1
20260507171037 22 250 4.8 11.3 0.00 0.00 0.00 52 1012.1
20260507170541 22 215 4.8 11.3 0.00 0.00 0.00 51 1012.1
20260507170046 22 206 1.6 12.9 0.00 0.00 0.00 51 1012.1
20260507165537 22 250 4.8 12.9 0.00 0.00 0.00 51 1012.1
20260507165038 22 208 4.8 11.3 0.00 0.00 0.00 52 1012.1
20260507164547 22 240 3.2 9.7 0.00 0.00 0.00 54 1012.1
20260507164038 22 0 3.2 9.7 0.00 0.00 0.00 52 1012.0
20260507163544 22 269 3.2 9.7 0.00 0.00 0.00 51 1012.0
20260507163047 22 260 1.6 9.7 0.00 0.00 0.00 52 1012.0
20260507162538 22 254 4.8 14.5 0.00 0.00 0.00 52 1012.0
20260507162038 22 227 4.8 14.5 0.00 0.00 0.00 53 1012.0
20260507161549 22 245 6.4 12.9 0.00 0.00 0.00 53 1012.1
20260507161037 22 257 3.2 12.9 0.00 0.00 0.00 53 1012.0
20260507160536 22 300 3.2 12.9 0.00 0.00 0.00 52 1012.1
20260507160048 22 187 3.2 12.9 0.00 0.00 0.00 52 1012.0
20260507155539 22 231 1.6 14.5 0.00 0.00 0.00 52 1012.1
20260507155037 22 232 8.0 14.5 0.00 0.00 0.00 53 1011.9
20260507154548 22 244 3.2 11.3 0.00 0.00 0.00 53 1011.9
20260507154036 22 232 6.4 11.3 0.00 0.00 0.00 52 1012.0
20260507153537 22 305 6.4 11.3 0.00 0.00 0.00 52 1012.1
20260507153047 22 227 3.2 9.7 0.00 0.00 0.00 54 1012.2
20260507152538 22 148 3.2 12.9 0.00 0.00 0.00 53 1012.2
20260507152038 22 256 3.2 12.9 0.00 0.00 0.00 52 1012.1
20260507151547 22 254 6.4 12.9 0.00 0.00 0.00 53 1012.2
20260507151037 22 222 1.6 12.9 0.00 0.00 0.00 53 1012.1
20260507150538 22 244 4.8 12.9 0.00 0.00 0.00 53 1012.1
20260507150057 22 205 3.2 11.3 0.00 0.00 0.00 53 1012.2
20260507145538 22 246 3.2 20.9 0.00 0.00 0.00 48 1012.2
20260507145037 22 234 4.8 20.9 0.00 0.00 0.00 53 1012.2
20260507144553 22 246 11.3 20.9 0.00 0.00 0.00 52 1012.2
20260507144039 22 213 6.4 19.3 0.00 0.00 0.00 52 1012.1
20260507143549 22 178 4.8 19.3 0.00 0.00 0.00 52 1012.2
20260507143055 22 204 8.0 19.3 0.00 0.00 0.00 52 1012.2
20260507142537 22 236 4.8 19.3 0.00 0.00 0.00 51 1012.3
20260507142037 22 271 4.8 19.3 0.00 0.00 0.00 53 1012.3
20260507141552 22 234 6.4 19.3 0.00 0.00 0.00 54 1012.2
20260507141037 22 271 11.3 20.9 0.00 0.00 0.00 53 1012.3
20260507140537 22 288 16.1 20.9 0.00 0.00 0.00 52 1012.3
20260507140044 22 271 9.7 20.9 0.00 0.00 0.00 52 1012.3
20260507135541 22 290 6.4 20.9 0.00 0.00 0.00 52 1012.3
20260507135037 22 209 14.5 20.9 0.00 0.00 0.00 52 1012.4
20260507134629 22 230 9.7 20.9 0.00 0.00 0.00 53 1012.3
20260507134037 21 265 8.0 25.7 0.00 0.00 0.00 52 1012.4
20260507133537 21 246 12.9 25.7 0.00 0.00 0.00 54 1012.4
20260507133053 21 272 8.0 14.5 0.00 0.00 0.00 55 1012.5
20260507132536 21 271 8.0 17.7 0.00 0.00 0.00 49 1012.5
20260507132037 21 246 4.8 17.7 0.00 0.00 0.00 53 1012.7
20260507131610 21 300 9.7 17.7 0.00 0.00 0.00 53 1012.7
20260507131038 21 299 4.8 20.9 0.00 0.00 0.00 52 1012.7
20260507130537 22 259 12.9 20.9 0.00 0.00 0.00 51 1012.7
20260507130051 22 221 9.7 19.3 0.00 0.00 0.00 52 1012.7
20260507125537 21 272 4.8 14.5 0.00 0.00 0.00 53 1012.6
20260507125037 21 292 8.0 17.7 0.00 0.00 0.00 53 1012.6
20260507124546 21 320 8.0 20.9 0.00 0.00 0.00 55 1012.6
20260507124037 21 309 8.0 22.5 0.00 0.00 0.00 54 1012.7
20260507123537 21 336 11.3 22.5 0.00 0.00 0.00 54 1012.8
20260507123048 21 282 6.4 17.7 0.00 0.00 0.00 53 1012.9
20260507122537 21 296 9.7 17.7 0.00 0.00 0.00 54 1012.9
20260507122038 21 290 4.8 19.3 0.00 0.00 0.00 55 1012.9
20260507121548 21 352 8.0 19.3 0.00 0.00 0.00 54 1012.9
20260507121038 21 287 8.0 19.3 0.00 0.00 0.00 55 1013.0
20260507120537 21 277 6.4 20.9 0.00 0.00 0.00 54 1013.0
20260507120051 21 256 14.5 20.9 0.00 0.00 0.00 55 1013.1
20260507115538 21 242 6.4 19.3 0.00 0.00 0.00 56 1013.1
20260507115037 21 250 11.3 19.3 0.00 0.00 0.00 56 1013.0
20260507114548 21 320 8.0 17.7 0.00 0.00 0.00 55 1013.2
20260507114037 21 258 6.4 19.3 0.00 0.00 0.00 55 1013.3
20260507113538 21 301 8.0 19.3 0.00 0.00 0.00 57 1013.3
20260507113048 21 302 6.4 16.1 0.00 0.00 0.00 56 1013.4
20260507112537 20 203 3.2 19.3 0.00 0.00 0.00 57 1013.4
20260507112037 20 246 4.8 19.3 0.00 0.00 0.00 57 1013.4
20260507111544 20 317 11.3 19.3 0.00 0.00 0.00 57 1013.5
20260507111037 20 300 9.7 19.3 0.00 0.00 0.00 57 1013.6
20260507110536 20 312 8.0 24.1 0.00 0.00 0.00 54 1013.6
20260507110045 20 327 12.9 24.1 0.00 0.00 0.00 57 1013.6
20260507105536 20 313 8.0 16.1 0.00 0.00 0.00 58 1013.7
20260507105038 20 24 4.8 16.1 0.00 0.00 0.00 58 1013.7
20260507104543 20 266 9.7 19.3 0.00 0.00 0.00 60 1013.7
20260507104038 20 290 8.0 19.3 0.00 0.00 0.00 60 1013.8
20260507103537 20 320 4.8 17.7 0.00 0.00 0.00 61 1013.9
20260507103048 19 226 8.0 17.7 0.00 0.00 0.00 61 1013.9
20260507102538 19 246 9.7 16.1 0.00 0.00 0.00 62 1013.8
20260507102038 19 340 3.2 14.5 0.00 0.00 0.00 64 1013.9
20260507101546 19 351 8.0 19.3 0.00 0.00 0.00 65 1014.0
20260507101038 18 313 8.0 19.3 0.00 0.00 0.00 64 1014.0
20260507100537 18 15 8.0 17.7 0.00 0.00 0.00 65 1014.0
20260507100049 18 291 6.4 17.7 0.00 0.00 0.00 64 1014.0
20260507095537 19 336 8.0 17.7 0.00 0.69 0.00 64 1014.1
20260507095037 19 306 9.7 17.7 0.00 0.69 0.00 65 1014.1
20260507094546 18 60 8.0 16.1 0.00 0.69 0.00 66 1014.1
20260507094038 18 331 8.0 16.1 0.00 0.69 0.00 68 1014.1
20260507093537 18 0 6.4 17.7 0.00 0.69 0.00 69 1014.1
20260507093053 17 346 6.4 22.5 0.00 0.69 0.00 70 1014.1
20260507092538 17 304 11.3 22.5 0.00 0.69 0.00 68 1014.0
20260507092037 17 294 8.0 20.9 0.00 0.69 0.00 70 1014.1
20260507091548 17 338 11.3 20.9 0.00 0.69 0.00 70 1014.1
20260507091038 17 253 6.4 19.3 0.00 0.69 0.00 72 1014.0
20260507090537 17 300 11.3 19.3 0.00 0.69 0.00 72 1014.0
20260507090047 17 329 12.9 25.7 0.00 0.69 0.00 71 1014.0
20260507085537 18 321 12.9 25.7 0.00 0.94 0.00 71 1014.0
20260507085039 18 282 11.3 25.7 0.00 0.94 0.00 64 1014.0
20260507084550 18 278 6.4 14.5 0.00 0.94 0.00 66 1014.0
20260507084037 18 232 3.2 14.5 0.00 0.94 0.00 67 1013.8
20260507083537 18 304 6.4 14.5 0.00 0.94 0.00 66 1013.8
20260507083049 18 0 3.2 14.5 0.00 0.94 0.00 67 1013.8
20260507082537 18 221 6.4 14.5 0.00 0.94 0.00 67 1013.8
20260507082039 18 315 4.8 12.9 0.00 0.94 0.00 67 1013.8
20260507081546 17 331 6.4 9.7 0.00 0.94 0.00 67 1014.0
20260507081038 17 291 4.8 8.0 0.00 0.94 0.00 68 1013.8
20260507080537 17 311 0.0 3.2 0.00 0.94 0.00 69 1013.9
20260507080100 17 218 0.0 6.4 0.00 0.94 0.00 72 1013.8
20260507075538 16 0 0.0 6.4 0.00 0.94 0.00 75 1013.7
20260507075037 16 163 0.0 4.8 0.00 0.94 0.00 77 1013.8
20260507074551 16 0 1.6 4.8 0.00 0.94 0.00 77 1013.7
20260507074037 15 178 0.0 3.2 0.00 0.94 0.00 77 1013.7
20260507073537 15 155 0.0 3.2 0.00 0.94 0.00 79 1013.7
20260507073048 15 0 0.0 3.2 0.00 0.94 0.00 78 1013.6
20260507072538 15 0 0.0 4.8 0.00 0.94 0.00 78 1013.6
20260507072113 15 301 1.6 4.8 0.00 0.94 0.00 79 1013.7
20260507071606 15 295 1.6 6.4 0.00 0.94 0.00 80 1013.6
20260507071038 15 302 3.2 6.4 0.00 0.94 0.00 80 1013.5
20260507070537 15 327 0.0 6.4 0.00 0.94 0.00 80 1013.4
20260507070048 15 292 1.6 6.4 0.00 0.94 0.00 81 1013.4
20260507065537 14 0 0.0 1.6 0.00 0.97 0.00 81 1013.3
20260507065037 14 0 0.0 1.6 0.00 0.97 0.00 81 1013.2
20260507064546 14 0 0.0 3.2 0.00 0.97 0.00 82 1013.2
20260507064037 14 0 0.0 3.2 0.00 0.97 0.00 82 1013.1
20260507063538 13 0 0.0 3.2 0.00 0.97 0.00 83 1013.1
20260507063047 13 258 0.0 3.2 0.00 0.97 0.00 84 1013.2
20260507062538 13 0 0.0 3.2 0.00 0.97 0.00 85 1013.1
20260507062038 13 305 0.0 4.8 0.00 0.97 0.00 85 1013.1
20260507061545 13 305 1.6 6.4 0.00 0.97 0.00 86 1013.0
20260507061038 12 300 1.6 6.4 0.00 0.97 0.00 86 1012.9
20260507060538 12 331 3.2 4.8 0.00 0.97 0.00 86 1012.9
20260507060045 12 287 1.6 4.8 0.00 0.97 0.00 87 1012.8
20260507055538 12 307 3.2 4.8 0.00 0.97 0.00 87 1012.9
20260507055037 12 5 1.6 4.8 0.00 0.97 0.00 88 1012.8
20260507054545 12 0 0.0 4.8 0.00 0.97 0.00 88 1012.8
20260507054037 12 284 1.6 4.8 0.00 0.97 0.00 88 1012.8
20260507053538 12 254 1.6 6.4 0.00 0.97 0.00 88 1012.8
20260507053111 12 254 3.2 6.4 0.00 0.97 0.00 89 1012.7
20260507052538 12 229 3.2 6.4 0.00 0.97 0.00 89 1012.6
20260507052037 12 0 0.0 4.8 0.00 0.97 0.00 88 1012.5
20260507051552 12 246 1.6 4.8 0.00 0.97 0.00 88 1012.5
20260507051037 12 0 1.6 3.2 0.00 0.97 0.00 88 1012.4
20260507050538 12 0 0.0 3.2 0.00 0.97 0.00 88 1012.3
20260507050046 12 0 0.0 1.6 0.00 0.97 0.00 88 1012.2
20260507045539 12 11 0.0 1.6 0.00 1.32 0.00 88 1012.1
20260507045039 12 0 0.0 1.6 0.00 1.32 0.00 87 1012.2
20260507044547 12 0 0.0 0.0 0.00 1.32 0.00 87 1012.1
20260507044037 12 0 0.0 0.0 0.00 1.32 0.00 87 1012.0
20260507043537 12 0 0.0 0.0 0.00 1.32 0.00 87 1011.9
20260507043047 12 0 0.0 1.6 0.00 1.32 0.00 87 1012.0
20260507042538 12 0 0.0 3.2 0.00 1.32 0.00 87 1011.9
20260507042037 12 0 0.0 3.2 0.00 1.32 0.00 87 1011.8
20260507041547 12 5 0.0 3.2 0.00 1.32 0.00 87 1011.8
20260507041037 12 5 0.0 3.2 0.00 1.32 0.00 87 1011.9
20260507040538 12 0 0.0 3.2 0.00 1.32 0.00 87 1011.8
20260507040134 12 0 0.0 3.2 0.00 1.32 0.00 87 1011.8
20260507035538 12 0 0.0 3.2 0.00 1.55 0.00 86 1011.8
20260507035037 12 352 0.0 4.8 0.00 1.55 0.00 86 1011.9
20260507034546 12 0 0.0 8.0 0.00 1.55 0.00 86 1012.0
20260507034037 12 10 3.2 8.0 0.00 1.55 0.00 87 1011.9
20260507033538 12 332 3.2 6.4 0.00 1.55 0.00 86 1011.8
20260507033052 12 334 3.2 8.0 0.00 1.55 0.00 86 1011.8
20260507032539 12 352 3.2 11.3 0.00 1.55 0.00 86 1011.8
20260507032037 12 329 4.8 11.3 0.00 1.55 0.00 86 1011.7
20260507031553 12 316 3.2 6.4 0.00 1.55 0.00 86 1011.8
20260507031040 12 321 3.2 8.0 0.00 1.55 0.00 86 1011.7
20260507030537 12 344 3.2 8.0 0.00 1.55 0.00 85 1011.7
20260507030050 12 346 3.2 8.0 0.00 1.55 0.00 85 1011.7
20260507025537 12 340 3.2 8.0 0.00 1.55 0.00 85 1011.7
20260507025037 12 338 4.8 6.4 0.00 1.55 0.00 85 1011.7
20260507024550 12 352 3.2 8.0 0.00 1.55 0.00 85 1011.7
20260507024039 12 17 3.2 9.7 0.00 1.55 0.00 85 1011.6
20260507023537 12 360 3.2 9.7 0.00 1.55 0.00 84 1011.6
20260507023047 12 9 3.2 9.7 0.00 1.55 0.00 84 1011.5
20260507022537 12 342 4.8 12.9 0.00 1.55 0.00 84 1011.6
20260507022039 12 327 4.8 12.9 0.00 1.55 0.00 84 1011.5
20260507021545 12 338 6.4 9.7 0.00 1.55 0.00 83 1011.6
20260507021038 12 347 4.8 9.7 0.00 1.55 0.00 83 1011.6
20260507020538 12 5 4.8 8.0 0.00 1.55 0.00 83 1011.6
20260507020047 12 360 4.8 8.0 0.00 1.55 0.00 83 1011.6
20260507015537 12 340 3.2 12.9 0.00 1.55 0.00 83 1011.5
20260507015038 13 319 3.2 12.9 0.00 1.55 0.00 83 1011.5
20260507014601 13 304 6.4 12.9 0.00 1.55 0.00 82 1011.6
20260507014038 13 332 3.2 12.9 0.00 1.55 0.00 82 1011.4
20260507013537 13 325 6.4 12.9 0.00 1.55 0.00 82 1011.4
20260507013050 13 318 4.8 11.3 0.00 1.55 0.00 82 1011.4
20260507012537 13 286 4.8 12.9 0.00 1.55 0.00 82 1011.4
20260507012037 13 307 6.4 12.9 0.00 1.55 0.00 82 1011.4
20260507011552 13 309 4.8 11.3 0.00 1.55 0.00 82 1011.4
20260507011038 13 325 3.2 11.3 0.00 1.55 0.00 82 1011.4
20260507010537 13 344 4.8 11.3 0.00 1.55 0.00 82 1011.2
20260507010054 13 9 4.8 12.9 0.00 1.55 0.00 82 1011.3
20260507005539 13 336 4.8 12.9 0.00 1.55 0.00 82 1011.3
20260507005038 13 321 6.4 12.9 0.00 1.55 0.00 82 1011.3
20260507004559 13 5 6.4 9.7 0.00 1.55 0.00 82 1011.3
20260507004038 13 352 6.4 9.7 0.00 1.55 0.00 82 1011.4
20260507003538 13 331 6.4 9.7 0.00 1.55 0.00 82 1011.4
20260507003046 13 341 4.8 9.7 0.00 1.55 0.00 82 1011.5
20260507002538 13 346 4.8 8.0 0.00 1.55 0.00 82 1011.4
20260507002038 13 335 4.8 8.0 0.00 1.55 0.00 82 1011.4
20260507001551 13 343 3.2 8.0 0.00 1.55 0.00 82 1011.4
20260507001037 13 349 4.8 8.0 0.00 1.55 0.00 82 1011.5
20260507000538 13 352 4.8 12.9 0.00 1.55 0.00 82 1011.5
20260507000054 13 345 4.8 12.9 0.00 1.55 0.00 82 1011.4
20260506235539 13 348 6.4 12.9 0.00 1.55 0.00 83 1011.4
20260506235037 13 21 6.4 12.9 0.00 1.55 0.00 83 1011.3
20260506234545 13 351 4.8 12.9 0.00 1.55 0.00 83 1011.4
20260506234040 13 342 4.8 8.0 0.00 1.55 0.00 83 1011.4
20260506233540 13 338 4.8 8.0 0.00 1.55 0.00 83 1011.3
20260506233056 13 331 3.2 8.0 0.00 1.55 0.00 82 1011.3
20260506232537 13 352 3.2 12.9 0.00 1.55 0.00 83 1011.2
20260506232035 13 347 4.8 12.9 0.00 1.55 0.00 82 1011.1
20260506231546 13 352 6.4 12.9 0.00 1.55 0.00 82 1011.0
20260506231035 13 5 4.8 11.3 0.00 1.55 0.00 82 1010.9
20260506230534 13 352 3.2 9.7 0.00 1.55 0.00 82 1010.9
20260506230051 13 5 3.2 9.7 0.00 1.55 0.00 82 1010.9
20260506225541 13 343 4.8 9.7 0.00 1.57 0.00 81 1010.8
20260506225038 13 9 4.8 9.7 0.00 1.57 0.00 81 1010.8
20260506224553 13 329 4.8 12.9 0.00 1.57 0.00 81 1010.9
20260506224039 13 352 4.8 12.9 0.00 1.57 0.00 81 1010.9
20260506223537 13 339 4.8 8.0 0.00 1.57 0.00 80 1010.8
20260506223045 13 323 3.2 11.3 0.00 1.57 0.00 80 1010.9
20260506222538 13 317 3.2 11.3 0.00 1.57 0.00 80 1011.0
20260506222038 13 300 3.2 9.7 0.00 1.57 0.00 80 1011.0
20260506221549 13 281 3.2 6.4 0.00 1.57 0.00 80 1011.0
20260506221037 13 259 3.2 4.8 0.00 1.57 0.00 80 1011.0
20260506220537 13 298 1.6 6.4 0.00 1.57 0.00 79 1011.0
20260506220049 13 56 0.0 6.4 0.00 1.57 0.00 79 1010.9
20260506215537 13 0 1.6 9.7 0.00 1.57 1.57 79 1010.9
20260506215039 13 360 4.8 9.7 0.00 1.57 1.57 79 1010.8
20260506214600 14 346 3.2 9.7 0.00 1.57 1.57 78 1010.7
20260506214036 14 14 3.2 14.5 0.00 1.57 1.57 78 1010.8
20260506213541 14 67 4.8 14.5 0.00 1.57 1.57 78 1010.7
20260506213049 14 20 6.4 14.5 0.00 1.57 1.57 77 1010.7
20260506212538 14 42 4.8 12.9 0.00 1.57 1.57 77 1010.7
20260506212038 14 26 4.8 14.5 0.00 1.57 1.57 77 1010.7
20260506211547 14 12 6.4 16.1 0.00 1.57 1.57 77 1010.7
20260506211038 14 360 8.0 16.1 0.00 1.57 1.57 77 1010.8
20260506210537 14 338 8.0 16.1 0.00 1.57 1.57 77 1010.7
20260506210050 14 48 4.8 12.9 0.00 1.57 1.57 78 1010.7
20260506205538 14 337 4.8 12.9 0.00 1.68 1.57 78 1010.7
20260506205037 14 352 6.4 14.5 0.00 1.68 1.57 78 1010.7
20260506204551 14 360 6.4 16.1 0.00 1.68 1.57 78 1010.7
20260506204037 14 344 6.4 16.1 0.00 1.68 1.57 78 1010.7
20260506203540 14 337 8.0 19.3 0.00 1.68 1.57 78 1010.6